PTAJQ SBCN-SBGO

Flight info

Callsign PTAJQ
Flight time 0h 26m
Altitude 6000
Route DIGEP
Aircraft BE58/L-SDFGRY/C

Departure

Time 2026-04-26 00:25
Airport Nelson Ribeiro Guimarães Airport (SBCN)

Arrival

Time 2026-04-26 00:51
Airport Santa Genoveva International Airport (SBGO)
Time Latitude Longitude Altitude Speed Heading
2026-04-26 00:19 -17.72614 -48.61524 2326 ft 0 kts 335°
2026-04-26 00:21 -17.72615 -48.61531 2326 ft 3 kts 202°
2026-04-26 00:21 -17.72648 -48.61505 2325 ft 6 kts 139°
2026-04-26 00:22 -17.72651 -48.61457 2323 ft 8 kts 71°
2026-04-26 00:22 -17.72681 -48.61412 2322 ft 8 kts 157°
2026-04-26 00:22 -17.72732 -48.61390 2321 ft 7 kts 155°
2026-04-26 00:22 -17.72779 -48.61367 2320 ft 7 kts 153°
2026-04-26 00:23 -17.72817 -48.61379 2320 ft 4 kts 245°
2026-04-26 00:23 -17.72824 -48.61405 2321 ft 2 kts 255°
2026-04-26 00:23 -17.72829 -48.61422 2322 ft 2 kts 251°
2026-04-26 00:23 -17.72833 -48.61434 2322 ft 1 kts 251°
2026-04-26 00:24 -17.72837 -48.61445 2323 ft 1 kts 251°
2026-04-26 00:24 -17.72845 -48.61453 2323 ft 3 kts 157°
2026-04-26 00:24 -17.72805 -48.61332 2319 ft 50 kts 66°
2026-04-26 00:24 -17.72580 -48.60804 2297 ft 99 kts 68°
2026-04-26 00:25 -17.72313 -48.60144 2499 ft 99 kts 68°
2026-04-26 00:25 -17.72018 -48.59438 2616 ft 115 kts 68°
2026-04-26 00:25 -17.71658 -48.58649 2751 ft 125 kts 64°
2026-04-26 00:25 -17.71235 -48.57844 3009 ft 124 kts 60°
2026-04-26 00:26 -17.70703 -48.57215 3377 ft 114 kts 22°
2026-04-26 00:26 -17.69889 -48.57412 3415 ft 138 kts 321°
2026-04-26 00:26 -17.69302 -48.58268 3503 ft 146 kts 302°
2026-04-26 00:26 -17.68747 -48.59177 3664 ft 148 kts 303°
2026-04-26 00:27 -17.68181 -48.60077 3843 ft 148 kts 303°
2026-04-26 00:27 -17.67607 -48.60984 4022 ft 149 kts 303°
2026-04-26 00:27 -17.67029 -48.61892 4197 ft 149 kts 303°
2026-04-26 00:27 -17.66461 -48.62784 4371 ft 149 kts 303°
2026-04-26 00:28 -17.65883 -48.63692 4545 ft 149 kts 303°
2026-04-26 00:28 -17.65305 -48.64600 4720 ft 149 kts 303°
2026-04-26 00:28 -17.64732 -48.65498 4890 ft 148 kts 304°
2026-04-26 00:28 -17.64161 -48.66394 5058 ft 148 kts 304°
2026-04-26 00:29 -17.63574 -48.67295 5220 ft 148 kts 310°
2026-04-26 00:29 -17.62762 -48.67928 5372 ft 147 kts 329°
2026-04-26 00:29 -17.61821 -48.68310 5522 ft 145 kts 353°
2026-04-26 00:29 -17.60841 -48.68575 5676 ft 146 kts 342°
2026-04-26 00:30 -17.59888 -48.68970 5830 ft 146 kts 338°
2026-04-26 00:30 -17.58975 -48.69411 5978 ft 146 kts 335°
2026-04-26 00:30 -17.58041 -48.69900 6030 ft 154 kts 333°
2026-04-26 00:30 -17.57026 -48.70452 6044 ft 172 kts 333°
2026-04-26 00:31 -17.55940 -48.71057 6038 ft 180 kts 332°
2026-04-26 00:31 -17.54803 -48.71690 6034 ft 186 kts 332°
2026-04-26 00:31 -17.53644 -48.72338 6029 ft 190 kts 332°
2026-04-26 00:31 -17.52466 -48.72997 6029 ft 192 kts 332°
2026-04-26 00:32 -17.51277 -48.73663 6029 ft 194 kts 332°
2026-04-26 00:32 -17.50086 -48.74329 6026 ft 195 kts 332°
2026-04-26 00:32 -17.47663 -48.75684 6026 ft 196 kts 332°
2026-04-26 00:33 -17.46465 -48.76354 6026 ft 196 kts 332°
2026-04-26 00:33 -17.45255 -48.77031 6026 ft 197 kts 332°
2026-04-26 00:33 -17.44046 -48.77706 6027 ft 197 kts 332°
2026-04-26 00:33 -17.42837 -48.78383 6027 ft 197 kts 332°
2026-04-26 00:34 -17.41617 -48.79065 6029 ft 197 kts 332°
2026-04-26 00:34 -17.40404 -48.79743 6028 ft 197 kts 332°
2026-04-26 00:34 -17.39182 -48.80426 6030 ft 197 kts 332°
2026-04-26 00:34 -17.37977 -48.81100 6033 ft 197 kts 332°
2026-04-26 00:35 -17.36771 -48.81773 6034 ft 197 kts 332°
2026-04-26 00:35 -17.35544 -48.82457 6032 ft 197 kts 332°
2026-04-26 00:35 -17.34341 -48.83129 6032 ft 197 kts 332°
2026-04-26 00:35 -17.33132 -48.83804 6085 ft 195 kts 332°
2026-04-26 00:36 -17.31929 -48.84477 6096 ft 195 kts 332°
2026-04-26 00:36 -17.30734 -48.85148 6098 ft 196 kts 332°
2026-04-26 00:36 -17.29534 -48.85841 6097 ft 196 kts 331°
2026-04-26 00:36 -17.28334 -48.86545 6098 ft 196 kts 330°
2026-04-26 00:37 -17.27144 -48.87237 6095 ft 197 kts 332°
2026-04-26 00:37 -17.25931 -48.87930 6096 ft 197 kts 332°
2026-04-26 00:37 -17.24736 -48.88607 6096 ft 196 kts 332°
2026-04-26 00:37 -17.23518 -48.89293 6096 ft 196 kts 332°
2026-04-26 00:38 -17.22317 -48.89965 6095 ft 196 kts 332°
2026-04-26 00:38 -17.21112 -48.90640 6094 ft 196 kts 332°
2026-04-26 00:38 -17.19893 -48.91320 6093 ft 196 kts 332°
2026-04-26 00:38 -17.18693 -48.91991 6095 ft 196 kts 332°
2026-04-26 00:39 -17.17481 -48.92666 6093 ft 196 kts 332°
2026-04-26 00:39 -17.16277 -48.93338 6092 ft 196 kts 332°
2026-04-26 00:39 -17.15070 -48.94011 6092 ft 196 kts 332°
2026-04-26 00:39 -17.14263 -48.94461 6094 ft 196 kts 332°
2026-04-26 00:40 -17.12651 -48.95359 6093 ft 196 kts 332°
2026-04-26 00:40 -17.11427 -48.96041 6092 ft 197 kts 332°
2026-04-26 00:40 -17.10224 -48.96709 6090 ft 196 kts 332°
2026-04-26 00:40 -17.09020 -48.97380 6088 ft 196 kts 332°
2026-04-26 00:41 -17.07811 -48.98053 6089 ft 196 kts 332°
2026-04-26 00:41 -17.06594 -48.98728 6088 ft 196 kts 333°
2026-04-26 00:41 -17.05376 -48.99362 6088 ft 196 kts 334°
2026-04-26 00:41 -17.04148 -48.99999 6087 ft 196 kts 334°
2026-04-26 00:42 -17.02925 -49.00652 6088 ft 196 kts 332°
2026-04-26 00:42 -17.01704 -49.01321 6090 ft 196 kts 332°
2026-04-26 00:42 -17.00506 -49.01985 6092 ft 196 kts 332°
2026-04-26 00:42 -16.99298 -49.02655 6094 ft 196 kts 332°
2026-04-26 00:43 -16.98088 -49.03328 6095 ft 196 kts 332°
2026-04-26 00:43 -16.96870 -49.04005 6095 ft 196 kts 332°
2026-04-26 00:43 -16.95668 -49.04673 6093 ft 196 kts 332°
2026-04-26 00:43 -16.94463 -49.05341 6095 ft 196 kts 332°
2026-04-26 00:44 -16.93259 -49.06011 6097 ft 196 kts 332°
2026-04-26 00:44 -16.92033 -49.06692 6001 ft 201 kts 332°
2026-04-26 00:44 -16.90791 -49.07383 5898 ft 204 kts 332°
2026-04-26 00:44 -16.89519 -49.08089 5790 ft 207 kts 332°
2026-04-26 00:45 -16.88243 -49.08800 5653 ft 209 kts 332°
2026-04-26 00:45 -16.87382 -49.09277 5563 ft 211 kts 332°
2026-04-26 00:45 -16.85629 -49.10251 5384 ft 212 kts 332°
2026-04-26 00:45 -16.84333 -49.10967 5254 ft 213 kts 332°
2026-04-26 00:46 -16.83019 -49.11697 5124 ft 213 kts 332°
2026-04-26 00:46 -16.81696 -49.12432 4994 ft 213 kts 332°
2026-04-26 00:46 -16.80374 -49.13165 4865 ft 214 kts 332°
2026-04-26 00:46 -16.79058 -49.13895 4735 ft 214 kts 332°
2026-04-26 00:47 -16.77744 -49.14624 4606 ft 214 kts 332°
2026-04-26 00:47 -16.76438 -49.15349 4479 ft 214 kts 332°
2026-04-26 00:47 -16.75115 -49.16082 4352 ft 214 kts 333°
2026-04-26 00:47 -16.73790 -49.16815 4227 ft 214 kts 333°
2026-04-26 00:48 -16.72486 -49.17540 4099 ft 214 kts 333°
2026-04-26 00:48 -16.71192 -49.18248 3958 ft 204 kts 333°
2026-04-26 00:48 -16.69959 -49.18935 3798 ft 196 kts 332°
2026-04-26 00:48 -16.68766 -49.19598 3630 ft 191 kts 333°
2026-04-26 00:49 -16.67608 -49.20244 3548 ft 182 kts 333°
2026-04-26 00:49 -16.66570 -49.20885 3547 ft 165 kts 322°
2026-04-26 00:49 -16.65861 -49.21759 3515 ft 153 kts 300°
2026-04-26 00:49 -16.65336 -49.22695 3434 ft 147 kts 301°
2026-04-26 00:50 -16.64822 -49.23563 3373 ft 128 kts 302°
2026-04-26 00:50 -16.64356 -49.24315 3258 ft 118 kts 306°
2026-04-26 00:50 -16.63672 -49.24674 3073 ft 106 kts
2026-04-26 00:50 -16.63019 -49.24434 2920 ft 100 kts 36°
2026-04-26 00:51 -16.62535 -49.23937 2763 ft 100 kts 72°
2026-04-26 00:51 -16.62559 -49.23248 2543 ft 95 kts 119°
2026-04-26 00:51 -16.62857 -49.22713 2463 ft 71 kts 117°
2026-04-26 00:51 -16.63059 -49.22351 2457 ft 41 kts 117°
2026-04-26 00:52 -16.63142 -49.22210 2454 ft 7 kts 146°
2026-04-26 00:52 -16.63197 -49.22223 2454 ft 9 kts 209°
2026-04-26 00:52 -16.63256 -49.22258 2454 ft 9 kts 209°
2026-04-26 00:52 -16.63309 -49.22292 2453 ft 8 kts 210°
2026-04-26 00:53 -16.63335 -49.22328 2454 ft 6 kts 327°
2026-04-26 00:53 -16.63305 -49.22371 2455 ft 9 kts 297°
2026-04-26 00:53 -16.63268 -49.22438 2457 ft 7 kts 301°
2026-04-26 00:53 -16.63273 -49.22456 2458 ft 2 kts 213°
2026-04-26 00:54 -16.63278 -49.22459 2458 ft 0 kts 209°